This demonstration page uses our WeatherBlox Daily Observations layout. Learn more.

Left ArrowRight Arrow

Hourly Observations for November 14, 2019

Temp ( °F °C ) Dew Point ( °F °C ) Humidity (%) Winds ( mph kmh ) Pressure ( in mb ) Visibility ( mi km ) Precip ( " mm )
12:56 am 00:56 Partly Cloudy 34 1.1 30 -1.1 85 85 NNW 9 15 30.23 1024 10 16 0.00 0.00
1:56 am 01:56 Cloudy 32 0 29 -1.7 88 88 WNW 6 9 30.27 1025 10 16 0.00 0.00
2:56 am 02:56 Cloudy 31 -0.6 29 -1.7 92 92 WNW 6 9 30.29 1026 10 16 0.00 0.00
3:56 am 03:56 Cloudy 31 -0.6 28 -2.2 89 89 WNW 6 9 30.31 1026 10 16 0.00 0.00
4:56 am 04:56 Mostly Cloudy 32 0 29 -1.7 88 88 NW 7 11 30.32 1027 10 16 0.00 0.00
5:18 am 05:18 Mostly Clear 30 -1 28 -2 93 93 NW 6 9 30.39 1029 10 16 0.00 0.00
5:56 am 05:56 Clear 27 -2.8 23 -5 85 85 NW 7 11 30.35 1028 10 16 0.00 0.00
6:56 am 06:56 Clear 25 -3.9 23 -5 92 92 WNW 6 9 30.37 1028 10 16 0.00 0.00
7:56 am 07:56 Sunny 26 -3.3 24 -4.4 92 92 NW 7 11 30.38 1029 10 16 0.00 0.00
8:56 am 08:56 Sunny 33 0.6 29 -1.7 85 85 WNW 7 11 30.38 1029 10 16 0.00 0.00
9:56 am 09:56 Sunny 38 3.3 31 -0.6 76 76 NW 8 13 30.38 1029 10 16 0.00 0.00
10:56 am 10:56 Sunny 43 6.1 30 -1.1 60 60 NW 6 9 30.38 1029 10 16 0.00 0.00
11:56 am 11:56 Sunny 47 8.3 29 -1.7 50 50 NW 8 13 30.38 1029 10 16 0.00 0.00
12:56 pm 12:56 Sunny 50 10 29 -1.7 44 44 WNW 8 13 30.35 1028 10 16 0.00 0.00
1:56 pm 13:56 Sunny 52 11.1 31 -0.6 45 45 NW 10 17 30.32 1027 10 16 0.00 0.00
2:56 pm 14:56 Sunny 53 11.7 32 0 45 45 VRB 7 11 30.30 1026 10 16 0.00 0.00
3:56 pm 15:56 Sunny 53 11.7 32 0 45 45 WNW 7 11 30.30 1026 10 16 0.00 0.00
4:56 pm 16:56 Sunny 51 10.6 32 0 48 48 W 5 7 30.31 1026 10 16 0.00 0.00
5:56 pm 17:56 Clear 43 6.1 29 -1.7 58 58 S 6 9 30.34 1027 10 16 0.00 0.00
6:56 pm 18:56 Clear 37 2.8 28 -2.2 70 70 S 8 13 30.35 1028 10 16 0.00 0.00
7:56 pm 19:56 Clear 39 3.9 30 -1.1 70 70 SSW 10 17 30.34 1027 10 16 0.00 0.00
8:56 pm 20:56 Clear 39 3.9 29 -1.7 67 67 SSW 9 15 30.33 1027 10 16 0.00 0.00
9:56 pm 21:56 Clear 37 2.8 28 -2.2 70 70 SSW 12 19 30.33 1027 10 16 0.00 0.00
10:56 pm 22:56 Clear 35 1.7 28 -2.2 76 76 SSW 9 15 30.33 1027 10 16 0.00 0.00
11:56 pm 23:56 Clear 36 2.2 29 -1.7 76 76 SSW 12 19 30.32 1027 10 16 0.00 0.00

Powered by AerisWeather